(451) Patientia
ephemeris date magn radius delta ra dec elong phase
Today19 Apr 202511.63.243 AU2.283 AU14h50m+01°54'159.5°6.2°
Opposition27 Apr 202511.63.246 AU2.271 AU14h44m+02°13'162.7°5.3°
(451) Patientia - 2025-04-19
astro.vanbuitenen.nl


 
-1 year
-1 month
-1 day
Now
+1 day
+1 month
+1 year

The interactive orbit chart above shows the body's path through the solar system and its position at the given date. Green and blue lines are shown perpendicular to the ecliptic plane: Green if the path is above the ecliptic plane, blue if it is below. (Left-click and drag to rotate the view; Right-click and drag to move the view; Use scroll wheel to zoom in our out.)

The orbital elements of Patientia are:

            e (Eccentricity)                : 0.0697885
            a (Semimajor axis)              : 3.0636631
            i (Inclination)                 : 15.20648
            Ω (Longitude of ascending node) : 88.99597
            ω (Argument of perihelion)      : 337.10370
            M (Mean anomaly)                : 147.84745
            Epoch                           : 2025 May 05

            L (Longitude of perihelion)     : 66.82247
            B (Latitude of perihelion)      : -5.85729
            P (Orbital period in years)     : 5.36            
        

The light curve chart below shows the estimated development of the minor planet's magnitude.


The all-sky chart below shows the path of the minor planet over the same period as the light curve. The current position is marked yellow.





The following chart shows the path of the minor planet in the next few days. The field of view is optimized for (~10x50) binoculars and finderscopes. A more printer-friendly version of the same chart can be found below.




Ephemerides:
Date       Time       RA (2000)    DEC (2000)    delta   radius  elong  phase   PA    magn
2025-04-19 00:00 UT   14 50 58.1   +01 54 07     2.283    3.243  159.5    6.2   230   11.6 
2025-04-19 21:46 UT   14 50 16.9   +01 56 30     2.281    3.243  160.1    6.1   228   11.6 
2025-04-20 00:00 UT   14 50 12.6   +01 56 44     2.281    3.243  160.1    6.0   227   11.6 
2025-04-21 00:00 UT   14 49 26.7   +01 59 16     2.279    3.244  160.7    5.9   224   11.6 
2025-04-22 00:00 UT   14 48 40.2   +02 01 41     2.277    3.244  161.2    5.7   221   11.6 
2025-04-23 00:00 UT   14 47 53.3   +02 04 01     2.275    3.245  161.6    5.6   218   11.6 
2025-04-24 00:00 UT   14 47 05.9   +02 06 14     2.274    3.245  162.0    5.5   214   11.6 
2025-04-25 00:00 UT   14 46 18.3   +02 08 21     2.273    3.245  162.3    5.4   211   11.6 
2025-04-26 00:00 UT   14 45 30.3   +02 10 21     2.272    3.246  162.5    5.3   207   11.6 
2025-04-27 00:00 UT   14 44 42.0   +02 12 14     2.271    3.246  162.7    5.3   203   11.6 
2025-04-28 00:00 UT   14 43 53.5   +02 14 00     2.271    3.246  162.8    5.3   199   11.6 
2025-04-29 00:00 UT   14 43 04.8   +02 15 39     2.271    3.247  162.8    5.3   195   11.6 
2025-04-30 00:00 UT   14 42 16.0   +02 17 10     2.271    3.247  162.7    5.3   191   11.6 
2025-05-01 00:00 UT   14 41 27.2   +02 18 33     2.272    3.247  162.6    5.3   187   11.6 
2025-05-02 00:00 UT   14 40 38.3   +02 19 49     2.273    3.248  162.4    5.4   183   11.6 
2025-05-03 00:00 UT   14 39 49.4   +02 20 56     2.274    3.248  162.1    5.5   180   11.6 
2025-05-04 00:00 UT   14 39 00.6   +02 21 56     2.275    3.248  161.7    5.6   176   11.6 
2025-05-05 00:00 UT   14 38 11.9   +02 22 47     2.277    3.249  161.3    5.7   173   11.6 
2025-05-06 00:00 UT   14 37 23.4   +02 23 30     2.279    3.249  160.8    5.8   170   11.6 
2025-05-07 00:00 UT   14 36 35.0   +02 24 04     2.281    3.249  160.3    6.0   166   11.6 
2025-05-08 00:00 UT   14 35 46.9   +02 24 30     2.284    3.250  159.7    6.2   163   11.6 
2025-05-09 00:00 UT   14 34 59.1   +02 24 47     2.287    3.250  159.1    6.4   161   11.6 
2025-05-10 00:00 UT   14 34 11.6   +02 24 55     2.290    3.250  158.5    6.6   158   11.7 
2025-05-11 00:00 UT   14 33 24.5   +02 24 55     2.293    3.250  157.8    6.8   156   11.7 
2025-05-12 00:00 UT   14 32 37.8   +02 24 46     2.297    3.251  157.0    7.0   153   11.7 
2025-05-13 00:00 UT   14 31 51.5   +02 24 28     2.301    3.251  156.3    7.2   151   11.7 
2025-05-14 00:00 UT   14 31 05.7   +02 24 01     2.305    3.251  155.5    7.4   149   11.7 
2025-05-15 00:00 UT   14 30 20.5   +02 23 26     2.309    3.252  154.7    7.6   147   11.7 
2025-05-16 00:00 UT   14 29 35.8   +02 22 41     2.314    3.252  153.8    7.9   146   11.7 
2025-05-17 00:00 UT   14 28 51.7   +02 21 48     2.319    3.252  153.0    8.1   144   11.8 
2025-05-18 00:00 UT   14 28 08.2   +02 20 46     2.324    3.253  152.1    8.4   142   11.8 
2025-05-19 00:00 UT   14 27 25.4   +02 19 34     2.329    3.253  151.3    8.6   141   11.8 


    Terminology:
            
    delta:  distance between minor planet and earth in AU
    radius: distance between minor planet and sun in AU
    magn:   magnitude (brightness) estimate    
    ra:     right ascension in hours (24h = 360deg)
    dec:    declination in degrees
    elong:  elongation in degrees (angle sun-earth-minor planet)    
    phase:  phase angle in degrees (angle sun-minor planet-earth)        
    AU:     Astronomical Unit (mean distance between earth and sun: 149597870.7 km
    

Orbital elements provided by the MPC (Minor Planet Center).
Calculations by a modified version of AAPlus, a C# implementation of the AA+ project by PJ Naughter from the algorithms presented in the book "Astronomical Algorithms" by Jean Meeus.
NGC2000 dso catalog and star labels from VizieR as provided by the Strasbourg astronomical Data Center.
Tycho2 catalog from the ESO archive.